South St. Paul, MN

2:11 PM CDT on July 27, 2017 (GMT -0500)
South Saint Paul Municipal-Fleming

Weather History for KSGS - October, 2011

Change the Weather History Date:

Saturday, October 29, 2011

  Actual Average (KSTP) Record (KSTP)
Temperature  
Mean Temperature 42 °F -  
Max Temperature 54 °F 49 °F 82 °F (1999)
Min Temperature 29 °F 34 °F 27 °F (2010)
Degree Days  
Heating Degree Days 24    
Moisture  
Dew Point 25 °F    
Average Humidity 56    
Maximum Humidity 87    
Minimum Humidity 26    
Precipitation  
Precipitation 0.00 in - - ()
Sea Level Pressure  
Sea Level Pressure 30.01 in    
Wind  
Wind Speed 1 mph (South)    
Max Wind Speed 8 mph    
Max Gust Speed -    
Visibility 10 miles    
Events      
Averages and records for this station are not official NWS values.
T = Trace of Precipitation, MM = Missing Value Source: NWS Daily Summary

Daily Weather History Graph

Daily Weather History Graph

Search for Another Location

Airport or City:

Trip Planner

Search our weather history database for the weather conditions in past years. The results will help you decide how hot, cold, wet, or windy it might be!

Date:

Astronomy

Oct. 29, 2011 Rise Set
Actual Time 7:45 AM CDT 6:05 PM CDT
Civil Twilight 7:15 AM CDT 6:35 PM CDT
Nautical Twilight 6:41 AM CDT 7:09 PM CDT
Astronomical Twilight 6:07 AM CDT 7:43 PM CDT
Moon 11:16 AM CDT (10/29) 8:20 PM CDT (10/29)
Length of Visible Light 11h 19m
Length of Day
10h 19m
Waxing Crescent, 12% of the Moon is Illuminated
Oct 29
Waxing Crescent
Nov 2
First Quarter
Nov 10
Full
Nov 18
Last Quarter
Nov 25
New

Hourly Weather History & Observations

Time (CDT) Temp. Windchill Dew Point Humidity Pressure Visibility Wind Dir Wind Speed Gust Speed Precip Events Conditions
12:14 AM 39.2 °F - 27.0 °F 62% 30.03 in 10.0 mi Calm Calm - N/A   Clear
12:34 AM 38.3 °F - 26.8 °F 63% 30.03 in 10.0 mi Calm Calm - N/A   Clear
12:54 AM 38.3 °F - 27.3 °F 65% 30.03 in 10.0 mi Calm Calm - N/A   Clear
1:14 AM 37.0 °F - 27.5 °F 68% 30.02 in 10.0 mi Calm Calm - N/A   Scattered Clouds
1:54 AM 35.6 °F - 27.9 °F 73% 30.03 in 10.0 mi Calm Calm - N/A   Clear
2:14 AM 35.2 °F - 27.1 °F 72% 30.03 in 10.0 mi Calm Calm - N/A   Clear
2:33 AM 35.1 °F - 27.3 °F 73% 30.04 in 10.0 mi Calm Calm - N/A   Clear
2:54 AM 34.7 °F - 27.3 °F 74% 30.04 in 10.0 mi Calm Calm - N/A   Clear
3:13 AM 34.9 °F - 27.1 °F 73% 30.03 in 10.0 mi Calm Calm - N/A   Clear
3:34 AM 34.7 °F - 27.0 °F 73% 30.03 in 10.0 mi Calm Calm - N/A   Clear
3:53 AM 34.7 °F - 27.1 °F 74% 30.03 in 10.0 mi Calm Calm - N/A   Clear
4:14 AM 34.7 °F - 27.1 °F 74% 30.03 in 10.0 mi Calm Calm - N/A   Clear
4:33 AM 32.9 °F - 26.4 °F 77% 30.03 in 10.0 mi Calm Calm - N/A   Clear
5:13 AM 32.0 °F - 26.8 °F 81% 30.03 in 10.0 mi Calm Calm - N/A   Clear
5:33 AM 30.9 °F - 26.2 °F 83% 30.04 in 10.0 mi Calm Calm - N/A   Clear
5:54 AM 32.0 °F - 27.1 °F 82% 30.04 in 10.0 mi Calm Calm - N/A   Clear
6:14 AM 31.1 °F - 25.3 °F 79% 30.05 in 10.0 mi Calm Calm - N/A   Clear
6:34 AM 31.8 °F - 26.6 °F 81% 30.04 in 10.0 mi Calm Calm - N/A   Clear
6:54 AM 29.3 °F - 25.9 °F 87% 30.04 in 10.0 mi Calm Calm - N/A   Clear
7:13 AM 30.2 °F - 25.0 °F 81% 30.05 in 10.0 mi Calm Calm - N/A   Clear
7:34 AM 31.1 °F - 26.6 °F 83% 30.05 in 10.0 mi Calm Calm - N/A   Clear
7:54 AM 31.1 °F - 26.2 °F 82% 30.06 in 10.0 mi Calm Calm - N/A   Clear
8:14 AM 31.1 °F - 26.1 °F 82% 30.06 in 10.0 mi Calm Calm - N/A   Clear
8:33 AM 31.8 °F - 26.4 °F 80% 30.06 in 10.0 mi Calm Calm - N/A   Clear
8:54 AM 33.3 °F - 26.8 °F 77% 30.07 in 10.0 mi Calm Calm - N/A   Clear
9:14 AM 34.3 °F - 27.9 °F 77% 30.07 in 10.0 mi Calm Calm - N/A   Clear
9:34 AM 35.6 °F - 28.2 °F 75% 30.06 in 10.0 mi Calm Calm - N/A   Clear
9:54 AM 37.0 °F - 28.9 °F 73% 30.06 in 10.0 mi Calm Calm - N/A   Clear
10:13 AM 39.2 °F - 29.7 °F 69% 30.06 in 10.0 mi Calm Calm - N/A   Clear
10:34 AM 41.2 °F - 29.5 °F 63% 30.06 in 10.0 mi Calm Calm - N/A   Clear
10:54 AM 43.0 °F - 29.8 °F 60% 30.06 in 10.0 mi Calm Calm - N/A   Clear
11:14 AM 44.2 °F 42.7 °F 30.7 °F 59% 30.07 in 10.0 mi SSE 3.5 mph - N/A   Clear
11:33 AM 46.4 °F - 31.5 °F 56% 30.06 in 10.0 mi Calm Calm - N/A   Clear
11:54 AM 48.0 °F - 30.0 °F 50% 30.06 in 10.0 mi Calm Calm - N/A   Clear
12:54 PM 51.3 °F - 26.1 °F 38% 30.04 in 10.0 mi WSW 4.6 mph - N/A   Clear
1:14 PM 51.4 °F - 24.4 °F 35% 30.03 in 10.0 mi SW 5.8 mph - N/A   Clear
1:34 PM 52.9 °F - 24.1 °F 33% 30.02 in 10.0 mi SSW 8.1 mph - N/A   Clear
1:54 PM 52.3 °F - 23.0 °F 32% 30.00 in 10.0 mi South 5.8 mph - N/A   Clear
2:14 PM 52.9 °F - 22.3 °F 30% 30.00 in 10.0 mi South 5.8 mph - N/A   Clear
2:34 PM 52.9 °F - 20.8 °F 29% 29.99 in 10.0 mi South 4.6 mph - N/A   Clear
2:54 PM 53.1 °F - 21.4 °F 29% 29.99 in 10.0 mi SW 3.5 mph - N/A   Clear
3:13 PM 53.4 °F - 21.2 °F 28% 29.98 in 10.0 mi WSW 3.5 mph - N/A   Clear
3:34 PM 54.0 °F - 19.2 °F 26% 29.97 in 10.0 mi SW 5.8 mph - N/A   Clear
3:54 PM 52.7 °F - 19.2 °F 27% 29.97 in 10.0 mi South 4.6 mph - N/A   Clear
4:13 PM 52.3 °F - 18.5 °F 26% 29.97 in 10.0 mi Calm Calm - N/A   Clear
4:34 PM 52.5 °F - 18.1 °F 26% 29.97 in 10.0 mi South 5.8 mph - N/A   Clear
4:54 PM 52.3 °F - 18.3 °F 26% 29.97 in 10.0 mi SSE 4.6 mph - N/A   Clear
5:14 PM 51.8 °F - 19.0 °F 28% 29.97 in 10.0 mi South 3.5 mph - N/A   Clear
5:34 PM 50.9 °F - 19.9 °F 30% 29.96 in 10.0 mi Calm Calm - N/A   Clear
6:14 PM 50.0 °F - 20.3 °F 31% 29.96 in 10.0 mi Calm Calm - N/A   Clear
6:34 PM 49.1 °F - 20.5 °F 32% 29.96 in 10.0 mi SSE 3.5 mph - N/A   Clear
6:54 PM 48.9 °F - 20.8 °F 33% 29.96 in 10.0 mi SE 3.5 mph - N/A   Clear
7:14 PM 48.4 °F - 21.2 °F 34% 29.96 in 10.0 mi SE 3.5 mph - N/A   Clear
7:34 PM 47.5 °F - 21.9 °F 36% 29.96 in 10.0 mi SSE 3.5 mph - N/A   Clear
7:54 PM 46.9 °F - 22.6 °F 38% 29.95 in 10.0 mi SSE 4.6 mph - N/A   Clear
8:13 PM 46.4 °F 45.2 °F 23.0 °F 40% 29.95 in 10.0 mi SSE 3.5 mph - N/A   Clear
8:34 PM 45.9 °F 44.6 °F 23.5 °F 41% 29.95 in 10.0 mi SE 3.5 mph - N/A   Clear
8:54 PM 45.9 °F 44.6 °F 24.8 °F 44% 29.95 in 10.0 mi SE 3.5 mph - N/A   Scattered Clouds
9:14 PM 46.0 °F 44.8 °F 26.1 °F 46% 29.95 in 10.0 mi SSE 3.5 mph - N/A   Scattered Clouds
9:33 PM 46.0 °F 44.8 °F 26.4 °F 46% 29.96 in 10.0 mi SSE 3.5 mph - N/A   Scattered Clouds
9:54 PM 46.2 °F 45.0 °F 26.6 °F 46% 29.96 in 10.0 mi SE 3.5 mph - N/A   Overcast
10:14 PM 46.0 °F 44.8 °F 26.6 °F 47% 29.96 in 10.0 mi SE 3.5 mph - N/A   Mostly Cloudy
10:33 PM 45.9 °F 44.6 °F 25.7 °F 45% 29.95 in 10.0 mi SE 3.5 mph - N/A   Mostly Cloudy
10:54 PM 45.9 °F 44.6 °F 24.6 °F 43% 29.95 in 10.0 mi ESE 3.5 mph - N/A   Mostly Cloudy
11:14 PM 46.0 °F 44.8 °F 24.6 °F 43% 29.94 in 10.0 mi SE 3.5 mph - N/A   Overcast
11:34 PM 46.0 °F 43.9 °F 23.7 °F 42% 29.93 in 10.0 mi SE 4.6 mph - N/A   Mostly Cloudy
11:54 PM 46.0 °F 43.1 °F 23.4 °F 41% 29.92 in 10.0 mi SE 5.8 mph - N/A   Mostly Cloudy